Location: Capvern
(43.1036°N, 0.3160°E)
Time: 23:43:48
(UTC+00:00)

Cosmos 1953 - Pass Details

Date: 16 October 2021
Orbit: 537 x 557 km, 82.5° (Epoch: 04 December)

Event Time Altitude Azimuth Distance (km) Brightness Sun altitude
Rises 18:09:15 0° 175° (S) 2,716 5.8 -10.8°
Reaches altitude 10° 18:11:26 10° 170° (S) 1,830 4.9 -11.2°
Maximum altitude 18:15:21 51° 94° (E) 702 2.4 -11.9°
Drops below altitude 10° 18:19:18 10° 18° (NNE) 1,852 4.8 -12.6°
Sets 18:21:31 0° 14° (NNE) 2,753 5.7 -13.0°
